Flag for U.S.A. Weather past 2 weeks in Sterling Heights, Michigan, U.S.A.

Now
31 °F

Mostly cloudy.


Feels Like: 22 °F
Forecast: 11 / 25 °F
Wind: 12 mph from Northwest

Location: Selfridge Air National Guard Base

Current Time: Jan 29, 2015 at 7:57:36 PM

Latest Report: Jan 29, 2015 at 6:55 PM


Visibility: 7 mi

Pressure: 29.92 "Hg

Humidity: 83%

Dew point: 27 °F

Location of Sterling HeightsLocation

Historic Weather in Sterling Heights — Graph

°F

Sterling Heights temperature yesterday

Maximum temperature yesterday: 27 °F (at 2:55 PM)
Minimum temperature yesterday: 7 °F (at 7:55 AM)
Average temperature yesterday: 19 °F

Past Weeks' High & Low Weather Summary

 TemperatureHumidityPressure
High42 °F (Jan 18, 12:58 AM)95% (Jan 23, 12:58 AM)30.44 "Hg (Jan 23, 12:58 AM)
Low7 °F (Jan 14, 7:55 PM)52% (Jan 16, 2:55 PM)29.55 "Hg (Jan 24, 2:55 PM)
Average25 °F77%30.01 "Hg
* Reported Jan 14 6:55 PM — Jan 29 6:55 PM, Sterling Heights, Weather by CustomWeather, © 2014

Note: Actual official high and low records may vary slightly from our data, if they occured in-between our weather recording intervals... More about our weather records

Advertising

Sterling Heights weather history for previous 24 hours

 ConditionsComfort  
Time TempWeatherWind HumidityBarometerVisibility
6:55 PM
Jan 29
31 °FMostly cloudy.12 mph83%29.92 "Hg7 mi
6:04 PM30 °FIce fog.8 mph93%29.84 "Hg4 mi
5:57 PM30 °FLight snow. Ice fog.9 mph93%29.84 "Hg3 mi
4:55 PM31 °FLight snow. Ice fog.10 mph93%29.82 "Hg1 mi
3:58 PM32 °FLight snow. Dense fog.10 mph93%29.74 "Hg1 mi
3:03 PM32 °FLight snow. Dense fog.9 mph93%29.71 "Hg1 mi
2:58 PM32 °FLight snow. Dense fog.10 mph87%29.70 "Hg1 mi
1:55 PM33 °FSleet. More clouds than sun.3 mph75%29.73 "Hg7 mi
12:55 PM33 °FOvercast.No wind75%29.74 "Hg7 mi
11:55 AM32 °FOvercast.3 mph75%29.76 "Hg7 mi
10:55 AM31 °FOvercast.6 mph78%29.78 "Hg7 mi
9:55 AM30 °FOvercast.7 mph79%29.80 "Hg7 mi
8:55 AM29 °FLight freezing rain. Overcast.8 mph77%29.83 "Hg7 mi
8:00 AM28 °FSleet. Overcast.10 mph74%29.80 "Hg7 mi
6:58 AM27 °FOvercast.12 mph73%29.88 "Hg10 mi
5:59 AM27 °FLight snow. Passing clouds.13 mph74%29.89 "Hg10 mi
4:58 AM26 °FPassing clouds.13 mph74%29.96 "Hg10 mi
3:58 AM26 °FPassing clouds.13 mph73%30.01 "Hg10 mi
2:58 AM26 °FOvercast.12 mph73%30.06 "Hg10 mi
1:58 AM25 °FPassing clouds.13 mph71%30.10 "Hg10 mi
12:58 AM24 °FMostly cloudy.12 mph74%30.13 "Hg10 mi
11:58 PM
Jan 28
23 °FMostly cloudy.10 mph78%30.16 "Hg10 mi
10:58 PM22 °FPassing clouds.12 mph83%30.18 "Hg10 mi
9:58 PM22 °FPassing clouds.10 mph82%30.21 "Hg10 mi
8:58 PM22 °FClear.9 mph79%30.25 "Hg10 mi
7:55 PM22 °FMostly cloudy.10 mph79%30.28 "Hg12 mi
Weather by CustomWeather, © 2014

See weather overviewHow to use our weather pages